Location: Baia Mare
(47.6567°N, 23.5850°E)
Time: 14:17:03
(UTC+03:00)

ISS - Pass Details

Date: 21 July 2019
Orbit: 409 x 418 km, 51.6° (Epoch: 21 July)

Event Time Altitude Azimuth Distance (km) Brightness Sun altitude
Rises 01:39:25 0° 291° (WNW) 2,351 0.3 -21.7°
Reaches altitude 10° 01:41:32 10° 296° (WNW) 1,486 -0.7 -21.7°
Maximum altitude 01:44:49 55° 15° (NNE) 500 -3.1 -21.7°
Enters shadow 01:45:17 49° 51° (NE) 537 -3.1 -21.7°
